User: anonymous   Login
Location: *
(33.8649°S, 62.1526°E)
Time: 07:07:26
(UTC+00:00)
Language:

IRS-1C - Orbit

View from above orbital plane
View from above orbital plane
View from above satellite
View from above satellite

Ground track
Ground track

The orbit data is extracted from the following two-line orbital elements,

1 23751U 95072A   21101.85932469 -.00000008  00000-0  16460-4 0  9992
2 23751  98.8627  58.8761 0001167  77.9431 282.1877 14.22653241312439
Epoch (UTC): 11 April 2021 20:37:25
Eccentricity: 0.0001167
inclination: 98.8627°
perigee height: 815 km
apogee height: 817 km
right ascension of ascending node: 58.8761°
argument of perigee: 77.9431°
revolutions per day: 14.22653241
mean anomaly at epoch: 282.1877°
orbit number at epoch: 31243

The dashed part of the orbit path shows where the satellite is in the earth's shadow,  

DLR